SCP
0 0 0 0 0 0 0 0 0 0 0 0 0 0 0 0 0 0 0 0 0 0 0 0 0 0 0 0 0 0 0 0 0 0 0 0 0 0 0 0 0 0 0
0 0 0 0 0 0 0 0 0 0 0 0 0 0 0 0 0 0 0 0 0 0 0 0 0 0 0 0 0 0 0 0 0 0 0 0 0 0 0 0 0 0 0
0 0 0 0 0 0 0 0 0 0 0 0 0 0 0 0 0 0 0 0 0 0 0 0 0 0 0 0 0 0 0 0 0 0 0 0 0 0 0 0 0 0 0
0 0 0 0 0 0 0 0 0 0 0 0 0 0 0 0 0 0 0 0 0 0 0 0 0 0 0 0 0 0 0 0 0 0 0 0 0 0 0 0 0 0 0
0 0 0 0 0 0 0 0 0 0 0 0 0 0 0 0 0 0 0 0 0 0 0 0 0 0 0 0 0 0 0 0 0 0 0 0 0 0 0 0 0 0 0
0 0 0 0 0 0 0 0 0 0 0 0 0 0 0 0 0 0 0 0 0 0 0 0 0 0 0 0 0 0 0 0 0 0 0 0 0 0 0 0 0 0 0
0 0 0 0 0 0 0 0 0 0 0 0 0 0 0 0 -0 0 0 0 0 0 0 0 0 0 0 0 0 0 0 0 0 0 0 0 0 0 0 0 0 0 0
0 0 0 0 0 0 0 0 0 0 0 0 0 0 0 0 -0 -0 0 0 0 0 0 0 0 0 0 0 0 0 0 0 0 0 0 0 0 0 0 0 0 0 0
0 0 0 0 0 0 0 0 0 0 0 0 0 0 0 0 -0 -0 0 0 0 0 0 0 0 0 0 0 0 0 0 0 0 0 0 0 0 0 0 0 0 0 0
0 0 0 0 0 0 0 0 0 0 0 0 0 0 0 0 0 0 0 0 0 0 0 0 0 0 0 0 0 0 0 0 0 0 0 0 0 0 0 0 0 0 0
0 0 0 0 0 0 0 0 0 0 0 0 0 0 0 0 0 0 0 0 0 0 0 0 0 0 0 0 0 0 0 0 0 0 0 0 0 0 0 0 0 0 0
0 0 0 0 0 0 0 0 0 0 0 0 0 0 0 0 0 0 0 0 0 0 0 0 0 0 0 0 0 0 0 0 0 0 0 0 0 0 0 0 0 0 0
0 0 0 0 0 0 0 0 0 0 0 0 0 0 0 0 0 0 0 0 0 0 0 0 0 0 0 0 0 0 0 0 0 0 0 0 0 0 0 0 0 0 0
0 0 0 0 0 0 0 0 0 0 0 0 0 0 0 0 0 0 0 0 0 0 0 0 0 0 0 0 0 0 0 0 0 0 0 0 0 0 0 0 0 0 0
0 0 0 0 0 0 0 0 0 0 0 0 0 0 0 0 0 0 0 0 0 0 0 0 0 0 0 0 0 0 0 0 0 0 0 0 0 0 0 0 0 0 0
0 0 0 0 0 0 0 0 0 0 0 0 0 0 0 0 0 0 0 0 0 0 0 0 0 0 0 0 0 0 0 0 0 0 0 0 0 0 0 0 0 0 0
0 0 0 0 0 0 0 0 0 0 0 0 0 0 0 0 0 0 0 0 0 0 0 0 0 0 0 0 0 0 0 0 0 0 0 0 0 0 0 0 0 0 0
0 0 0 0 0 0 0 0 0 0 0 0 0 0 0 0 0 0 0 0 0 0 0 0 0 0 0 0 0 0 0 0 0 0 0 0 0 0 0 0 0 0 0
0 0 0 0 0 0 0 0 0 0 0 0 0 0 0 0 0 0 0 0 0 0 0 0 0 0 0 0 0 0 0 0 0 0 0 0 0 0 0 0 0 0 0
0 0 0 0 0 0 0 0 0 0 0 0 0 0 0 0 0 0 0 0 0 0 0 0 0 0 0 0 0 0 0 0 0 0 0 0 0 0 0 0 0 0 0
0 0 0 0 0 0 0 0 0 0 0 0 0 0 0 0 0 0 0 0 0 0 0 0 0 0 0 0 0 0 0 0 0 0 0 0 0 0 0 0 0 0 0
0 0 0 0 0 0 0 0 0 0 0 0 0 0 0 0 0 0 0 0 0 0 0 0 0 0 0 0 0 0 0 0 0 0 0 0 0 0 0 0 0 0 0
0 0 0 0 0 0 0 0 0 0 0 0 0 0 0 0 0 0 0 0 0 0 0 0 0 0 0 0 0 0 0 0 0 0 0 0 0 0 0 0 0 0 0
0 0 0 0 0 0 0 0 0 0 0 0 0 0 0 0 0 0 0 0 0 0 0 0 0 0 0 0 0 0 0 0 0 0 0 0 0 0 0 0 0 0 0
0 0 0 0 0 0 0 0 0 0 0 0 0 0 0 0 0 0 0 0 0 0 0 0 0 0 0 0 0 0 0 0 0 0 0 0 0 0 0 0 0 0 0
0 0 0 0 0 0 0 0 0 0 0 0 0 0 0 0 0 0 0 0 0 0 0 0 0 0 0 0 0 0 0 0 0 0 0 0 0 0 0 0 0 0 0
Wind_Speed
2 2 2 3 3 3 3 3 4 5 5 5 5 5 5 5 5 5 4 10 10 9 9 8 8 8 8 8 8 9 9 8 7 7 7 7 6 6 6 6 5 5 5
2 2 2 2 2 2 2 3 3 4 3 4 5 5 4 4 5 5 4 6 10 10 10 9 8 9 8 8 8 8 9 8 8 8 7 7 7 7 6 6 6 5 5
2 2 2 2 2 2 3 3 4 3 4 4 4 4 4 4 4 5 4 4 5 8 10 10 9 8 8 8 8 8 8 8 9 8 8 7 7 6 6 6 6 5 5
3 3 2 1 1 2 3 3 3 3 3 3 3 3 3 3 4 4 4 4 4 4 7 10 9 8 8 7 7 7 7 7 8 8 8 8 8 7 7 7 6 6 5
3 3 2 1 2 2 2 3 2 2 2 3 3 3 3 3 3 4 5 5 5 4 4 7 10 9 9 8 8 8 8 7 7 6 6 7 7 7 6 6 6 6 6
2 3 2 2 2 3 2 3 3 3 2 2 3 4 3 3 3 4 4 4 4 5 5 5 5 6 10 9 9 8 8 7 7 6 5 5 6 5 6 6 6 6 6
3 3 2 2 2 2 2 3 2 3 2 2 2 3 3 3 4 3 3 3 5 5 5 5 4 4 4 9 9 9 8 7 6 6 6 5 5 5 5 5 5 5 5
2 3 3 2 2 3 3 2 2 2 1 2 2 2 3 4 4 4 3 3 4 4 4 5 4 4 4 3 5 9 8 7 6 5 6 5 4 4 4 4 4 4 4
2 2 3 3 3 3 3 2 2 3 2 1 2 2 2 1 2 3 3 3 3 3 3 3 4 4 4 3 3 6 8 8 7 6 5 4 4 4 3 3 3 3 3
2 2 3 3 3 2 2 2 2 2 3 1 1 2 1 2 1 1 2 2 3 3 3 3 3 3 3 3 4 6 7 7 7 6 6 5 4 4 4 3 2 2 3
1 2 3 3 3 2 2 2 2 2 2 2 2 1 1 2 1 2 1 3 2 2 2 2 2 3 3 2 2 4 6 6 6 6 6 5 5 4 4 3 2 2 2
0 1 2 2 2 2 2 2 2 3 2 2 2 2 2 2 1 2 1 1 2 2 2 2 2 2 2 2 3 5 5 5 6 7 7 6 6 5 4 4 3 2 2
1 2 2 2 2 2 2 2 2 2 2 2 2 1 1 1 2 2 2 1 1 2 2 2 2 2 2 2 3 5 5 5 5 5 5 6 6 6 5 4 4 3 3
3 3 3 3 2 2 2 2 2 2 2 2 2 2 1 1 1 2 2 2 0 1 2 2 2 2 2 2 3 4 3 4 4 4 4 5 5 6 6 5 4 4 4
2 3 3 3 3 3 3 3 2 2 2 2 2 2 1 1 1 1 1 2 3 1 2 2 2 2 2 1 3 2 2 3 3 4 4 4 5 5 5 4 4 5 4
2 3 3 3 3 3 3 3 3 2 2 1 1 2 1 1 1 1 1 1 2 3 2 2 2 2 2 2 3 2 2 4 4 3 3 3 4 4 4 4 4 4 5
3 3 4 4 3 3 3 3 3 3 3 2 1 2 2 1 1 1 1 1 1 2 2 2 1 2 1 2 3 3 2 2 2 4 3 3 3 4 4 4 4 4 4
3 3 3 3 3 3 3 4 4 4 4 3 3 2 2 1 1 1 1 1 1 1 2 2 1 1 2 2 2 3 2 2 2 3 3 3 3 4 4 4 4 4 4
3 2 3 3 3 3 3 3 4 4 4 4 4 4 3 3 2 2 2 2 1 1 1 2 1 1 1 2 2 2 2 2 3 3 3 3 4 4 4 4 4 4 4
3 3 3 3 3 3 3 3 3 3 3 3 3 3 4 4 4 4 3 3 2 1 1 1 1 1 1 2 1 1 2 2 2 2 3 3 4 5 5 4 4 4 5
3 3 3 2 2 2 3 3 4 3 3 2 2 3 3 4 5 4 3 4 4 2 2 2 1 1 1 1 1 1 1 2 2 1 2 2 2 2 3 4 4 5 5
2 3 3 3 2 2 3 5 4 3 3 3 3 2 2 3 4 5 4 5 5 4 4 3 2 2 3 2 1 1 0 1 2 1 1 3 1 2 2 2 4 4 5
2 2 2 3 3 3 4 5 5 3 3 3 3 2 2 2 2 2 3 3 3 4 5 4 4 4 4 4 2 1 1 1 2 2 1 2 2 2 2 3 5 5 5
3 3 3 3 2 2 2 4 4 3 2 2 2 3 2 2 2 2 2 1 1 2 3 3 3 4 3 3 4 3 3 1 1 1 0 1 2 2 3 2 4 4 5
3 3 2 2 2 2 2 3 4 3 2 1 1 1 2 2 3 3 3 2 1 1 2 3 3 2 2 2 3 2 1 1 1 2 1 1 2 2 2 2 3 4 5
3 3 2 2 2 2 2 3 5 3 2 1 0 1 2 2 3 3 3 3 2 2 0 0 0 1 1 0 1 2 3 2 1 2 1 1 1 1 2 2 2 2 3
Wind_Direction
71 59 52 51 47 48 57 55 53 49 46 45 47 49 42 35 32 29 24 37 43 50 54 55 62 67 71 69 66 64 65 67 67 66 66 73 73 72 69 64 66 67 55
98 80 66 57 53 53 62 65 61 61 53 52 46 41 39 34 34 31 26 27 34 40 44 47 58 62 65 66 66 66 65 65 64 65 68 71 69 67 64 62 62 63 57
108 101 84 66 55 66 71 70 60 60 60 54 47 40 37 34 33 31 29 25 24 34 41 42 45 51 55 61 64 67 67 64 62 64 67 68 66 62 61 58 56 56 57
115 109 99 80 67 74 75 76 65 61 53 47 40 31 31 29 30 30 34 32 27 26 32 37 42 46 50 58 61 61 63 63 64 63 66 65 62 58 54 51 50 56 58
114 112 108 101 90 80 74 84 68 74 66 48 45 36 28 25 23 32 34 31 30 28 24 26 33 42 46 49 53 55 54 54 59 62 67 69 65 57 53 54 53 52 49
108 107 106 102 101 93 77 79 84 67 68 55 59 45 28 21 28 32 29 29 28 29 27 26 25 30 40 44 50 52 49 49 51 55 64 72 72 66 60 54 52 49 43
117 114 113 111 107 107 110 105 97 82 57 45 63 36 19 26 36 30 24 32 29 24 25 25 26 24 23 32 39 43 41 41 48 54 55 63 69 67 61 54 48 44 39
126 127 125 126 120 112 104 102 106 98 58 44 87 74 18 360 9 19 20 30 23 18 24 25 26 29 25 19 24 33 34 34 39 48 47 53 57 56 55 52 43 41 36
135 131 134 133 134 133 140 140 132 125 124 44 61 115 125 231 325 349 12 23 19 17 12 15 23 22 25 21 10 23 28 29 34 38 37 48 49 42 40 42 39 35 27
141 140 141 140 140 137 146 159 140 128 127 123 61 56 107 149 141 336 343 358 10 14 5 12 13 10 16 13 10 19 25 25 30 31 28 31 36 34 29 25 24 21 17
148 150 147 146 150 150 154 150 135 130 129 142 142 127 86 62 90 136 299 329 351 354 354 352 1 0 359 6 358 12 22 23 29 25 22 23 22 16 13 14 11 6 4
169 171 152 154 158 156 162 164 155 148 145 133 131 134 144 146 162 145 175 294 321 325 335 349 358 348 344 355 358 13 19 19 22 19 18 18 15 12 12 18 17 7 353
199 205 175 170 168 171 164 152 147 153 154 151 154 159 160 166 155 146 142 190 317 318 334 344 333 336 341 347 346 2 7 9 15 14 18 19 14 11 3 8 10 2 357
201 191 180 175 170 162 156 148 141 155 145 155 157 152 147 174 163 160 159 152 77 335 339 311 324 334 338 333 344 358 349 355 10 14 17 16 14 9 4 0 1 358 358
189 178 174 168 166 162 160 149 150 160 144 149 156 151 149 179 161 169 162 162 156 195 275 290 306 322 328 329 348 355 330 348 6 10 10 10 5 1 1 359 2 358 356
185 172 171 169 167 163 159 150 151 152 143 158 163 155 168 186 164 155 160 163 157 166 216 262 265 303 321 337 351 349 329 350 344 344 359 0 358 354 353 353 352 353 353
184 182 181 172 171 169 161 155 163 160 165 173 177 170 188 179 163 165 153 150 158 149 186 270 291 314 324 326 333 332 326 327 320 326 339 344 346 344 339 345 352 349 343
187 185 180 174 175 171 165 166 174 181 181 187 195 182 196 180 181 185 174 181 195 182 174 227 283 312 300 305 318 322 328 328 311 325 338 339 340 340 333 335 344 343 336
169 168 171 176 179 175 173 178 178 187 191 195 194 195 200 179 196 201 188 187 197 187 167 181 249 289 304 322 334 326 328 326 324 333 334 325 322 325 324 328 333 336 334
167 167 174 179 180 176 175 175 173 181 187 198 201 203 204 200 202 193 191 189 175 155 145 157 213 270 285 308 333 320 328 331 320 333 334 334 327 322 318 317 322 328 329
171 168 159 161 164 171 183 175 177 179 185 198 206 210 216 213 213 199 191 182 171 170 169 174 198 233 263 287 274 272 293 314 302 322 329 331 331 329 320 318 322 325 322
165 156 164 168 180 207 210 188 174 172 183 190 205 221 225 216 217 212 210 196 185 178 184 183 200 215 234 232 237 241 257 352 309 315 334 312 327 312 308 303 325 324 322
168 168 179 175 196 224 212 192 184 166 181 193 198 200 219 218 198 189 200 201 215 214 198 185 195 214 214 209 192 207 213 220 243 275 329 297 309 303 305 325 331 327 323
179 189 195 195 196 224 210 195 184 153 163 189 196 195 194 198 194 159 160 172 229 245 224 209 207 221 220 205 195 195 201 223 270 288 167 270 302 298 310 307 321 330 329
180 193 196 191 195 234 219 181 154 141 158 188 203 193 178 186 204 154 140 163 202 269 250 214 212 211 206 193 164 135 132 126 282 285 231 228 283 296 298 290 306 327 328
190 183 191 203 203 216 212 181 159 149 156 165 147 220 201 186 191 161 147 161 193 234 242 172 238 347 342 344 146 165 179 180 217 264 252 210 267 319 312 293 297 310 310